Simultaneous Nadir Overpasses (SNOs) Predictions

Prediction of SNOs between METOP-A and NOAA-19 Satellite Orbit:

Table of predicted SNOs for the next 14.0 days since TLE Epoch: 3/9/2013
Index Date (METOP-A) Time (METOP-A) Lat,Lon (METOP-A) SZA (METOP-A ) Date (NOAA-19) Time (NOAA-19) Lat,Lon (NOAA-19) SZA (NOAA-19 ) Distance(km) Time Diff (sec)
1 03/10/2013 09:21:45 -73.43,-147.69 102.45 03/10/2013 09:20:31 -73.42,-147.60 102.44 2.96 74
2 03/10/2013 10:12:24 73.45, 19.70 77.56 03/10/2013 10:11:29 73.42, 19.65 77.55 3.23 55
3 03/10/2013 11:03:07 -73.40,-173.09 102.50 03/10/2013 11:02:35 -73.38,-173.04 102.51 2.43 32
4 03/10/2013 11:53:47 73.37, -5.81 77.47 03/10/2013 11:53:33 73.39, -5.78 77.48 1.73 14
5 03/10/2013 12:44:29 -73.38, 161.52 102.55 03/10/2013 12:44:39 -73.35, 161.53 102.58 3.06 10
6 03/10/2013 13:35:09 73.35, -31.21 77.42 03/10/2013 13:35:37 73.35, -31.22 77.42 0.50 28
7 03/10/2013 14:25:52 -73.30, 136.01 102.64 03/10/2013 14:26:43 -73.31, 136.09 102.65 2.82 51
8 03/10/2013 15:16:31 73.32, -56.60 77.37 03/10/2013 15:17:41 73.32, -56.66 77.35 1.97 70
9 03/20/2013 08:23:43 73.81, 47.62 73.94 03/20/2013 08:22:32 73.80, 46.07 74.02 48.28 71
10 03/20/2013 09:14:32 -73.47,-145.85 106.38 03/20/2013 09:13:31 -73.44,-145.83 106.40 3.47 61
11 03/20/2013 10:05:12 73.43, 21.42 73.58 03/20/2013 10:04:29 73.42, 21.45 73.58 1.55 43
12 03/20/2013 10:55:55 -73.39,-171.36 106.48 03/20/2013 10:55:35 -73.40,-171.27 106.47 2.88 20
13 03/20/2013 11:46:34 73.41, -3.98 73.53 03/20/2013 11:46:33 73.39, -3.99 73.51 2.14 1
14 03/20/2013 12:37:17 -73.37, 163.25 106.53 03/20/2013 12:37:39 -73.37, 163.29 106.53 1.31 22
15 03/20/2013 13:27:57 73.33, -29.49 73.43 03/20/2013 13:28:37 73.35, -29.42 73.44 3.17 40
16 03/20/2013 14:18:39 -73.34, 137.85 106.58 03/20/2013 14:19:43 -73.33, 137.85 106.60 0.95 64
17 03/20/2013 15:09:25 73.00, -55.54 73.11 03/20/2013 15:10:35 73.02, -54.19 73.05 43.87 70




NCC Satellite Simultaneous Nadir Overpasses (SNOs) Prediction Service
